Location: Taupo
(38.6830°S, 176.0830°E)
Time: 19:30:21
(UTC+13:00)

Cosmos 1980 Rocket - Pass Details

Date: 24 January 2019
Orbit: 828 x 851 km, 71.0° (Epoch: 20 February)

Event Time Altitude Azimuth Distance (km) Brightness Sun altitude
Rises 21:01:53 0° 333° (NNW) 3,407 5.3 -5.1°
Reaches altitude 10° 21:04:20 10° 330° (NNW) 2,478 4.7 -5.5°
Maximum altitude 21:10:01 70° 246° (WSW) 911 2.7 -6.4°
Drops below altitude 10° 21:15:45 10° 162° (SSE) 2,498 4.8 -7.4°
Sets 21:18:15 0° 159° (SSE) 3,436 5.5 -7.8°
